Location: Berlin
(38.3226°N, 75.2177°W)
Time: 22:29:18
(UTC+00:00)

Cosmos 2082 Rocket - Pass Details

Date: 26 October 2020
Orbit: 833 x 854 km, 71.0° (Epoch: 25 November)

Event Time Altitude Azimuth Distance (km) Brightness Sun altitude
Rises 09:22:49 0° 188° (S) 3,363 5.2 -23.8°
Reaches altitude 10° 09:25:17 10° 184° (S) 2,432 4.5 -23.3°
Maximum altitude 09:30:42 55° 108° (ESE) 1,000 2.8 -22.3°
Drops below altitude 10° 09:36:10 10° 32° (NNE) 2,449 5.0 -21.2°
Sets 09:38:39 0° 28° (NNE) 3,388 5.7 -20.7°
